Starlink 5935

operational
NORAD ID: 56453 Int'l Des: 2023-064 Owner: SPXS Country: US Constellation: starlink
LEOCIRCULAR

About Starlink 5935

Description loading...

Live Position

Loading 3D Globe...

Upcoming Passes

Altitude History

Altitude vs Time

uPlot chart will show altitude changes over time

Two-Line Element Set

1 56453U 23064F 26048.73222740 .00001492 00000-0 13282-3 0 9990
2 56453 70.0001 194.8952 0003094 270.1433 89.9371 14.98320913152259
Epoch: Feb 17, 2026 • Age: 25 hours

Current Status

Altitude 591.4 km
Velocity 7.56 km/s
Sub-Earth Point -56.14°S, 86.82°E
Launch Date May 10, 2023
Age 2.7 years
Type internet

Technical Details

Classification Payload
Mass 305.00 kg
Dry Mass 290.00 kg
Total Mass 305.00 kg
Length 0.20 m
Diameter 2.80 m
Span 9.00 m
Shape Box + pan
Manufacturer SPXS
Bus Type Starlink
Phase Status In Orbit
Owner/State SPXS/US

Large Constellations

Loading constellations...